STARLINK-4019, 52598

Orbit data source: Space-Track

STARLINK-4019, 52598 is a payload satellite owned by SpaceX/Seattle (US) in LEO that was launched on Sat, 14 May 2022 UTC via an FALCON 9 launch vehicle from the Air Force Eastern Test Range (AFETR). Payload-class satellites include a variety of spacecraft equipped with specific instruments for various scientific and technological missions. These include communications satellites like Starlink; space stations such as the ISS; scientific satellites like the Hubble; Earth observation satellites from companies like Planet Labs, Umbra, and HawkEye 360; GPS; miniature CubeSats for education and research; and military/defense satellites.

Loading next visibility...
Identifier
52598, 2022-052A
Orbit
LEO
Country
Flag of USUS
Related business
Manufacturer
SpaceX/Seattle
Mission
Operational Commercial Communications
Bus & Motor
STARLINK, Unknown motor
Mass
297 kg wet, ~275 kg dry
Launch date (UTC)
2022-05-14 (4 years ago)
Launch vehicle
FALCON 9
Launch site
Air Force Eastern Test Range (AFETR)
Object type
Payload
Rocket body
Debris
Shape & HBR
Box + 1 Pan, 10.1 m
Radar Cross Section
13.562 m², Large (>1 m²)

Expand to show TLE details & history
Last TLE update: 2 days ago

TLE from 2 days ago
0 STARLINK-4019
1 52598U 22052A   26171.29985860  .00000315  00000-0  37867-4 0  9998
2 52598  53.1594 183.3711 0001138  83.7120 276.4001 15.08834432227072
Epoch: 2026-06-20T07:11Z
TLE epoch observation values (Epoch: 2026-06-20T07:11:47.783Z)
Latitude
-0°
Longitude
166.90554°
Altitude
540.564 km
Speed
7.593 km/s
True Right ascension
12h 13m 29s
True Declination
0° 00' 00"
Sunlit
Object was in daylight at epoch
Visualization orbit readout
Latitude
Unknown
Longitude
Unknown
Altitude
Unknown
Speed
Unknown
Apparent Right ascension
Unknown
Apparent Declination
Unknown
Sunlit
N/A
Visualization observer readout
Local Sidereal Time
21:32:49
Azimuth
Unknown
Elevation
Unknown
Doppler factor
Unknown
Orbital elements
Apogee altitude
540.802 km
Perigee altitude
539.227 km
Semi-major axis
6,918.152 km
Eccentricity
0.00011
Inclination
53.1594°
RAAN
183.3711°
Arg. of periapsis
83.712°
True anomaly
276.38714°
Mean anomaly
276.4001°
Eccentric anomaly
276.39362°
Mean motion
3.77188 °/min
Orbital period
95.44 mins
BSTAR
0.000037867
Loading maneuver chart data...
Computing Atmospheric mass density...
Loading historical data...
Loading historical data...
Loading historical data...
Loading historical data...
Loading historical data...
Loading historical data...
Loading historical data...

Documentation

Showing up to 5 results
|